TimeCDT,TemperatureF,Dew PointF,Humidity,Sea Level PressureIn,VisibilityMPH,Wind Direction,Wind SpeedMPH,Gust SpeedMPH,PrecipitationIn,Events,Conditions,WindDirDegrees,DateUTC
12:15 AM,54.5,47.1,76,29.78,7.0,ENE,16.1,-,N/A,,Scattered Clouds,60,2013-04-10 05:15:00
12:35 AM,53.6,46.4,77,29.79,7.0,ENE,15.0,20.7,N/A,,Scattered Clouds,60,2013-04-10 05:35:00
12:55 AM,53.8,46.2,76,29.79,7.0,ENE,16.1,-,N/A,,Mostly Cloudy,60,2013-04-10 05:55:00
1:15 AM,53.2,45.9,76,29.78,7.0,ENE,15.0,-,N/A,,Scattered Clouds,60,2013-04-10 06:15:00
1:35 AM,53.1,45.7,76,29.78,7.0,ENE,12.7,-,N/A,,Clear,60,2013-04-10 06:35:00
1:55 AM,52.7,45.1,75,29.79,10.0,ENE,13.8,-,N/A,,Scattered Clouds,60,2013-04-10 06:55:00
2:15 AM,52.3,44.8,75,29.79,10.0,ENE,13.8,-,N/A,,Mostly Cloudy,60,2013-04-10 07:15:00
2:35 AM,51.8,44.6,76,29.78,7.0,NE,17.3,-,N/A,Rain,Rain,50,2013-04-10 07:35:00
2:55 AM,51.1,44.4,78,29.78,7.0,NNE,11.5,-,N/A,Rain,Light Rain,30,2013-04-10 07:55:00
3:15 AM,50.2,43.7,78,29.83,4.0,NNW,19.6,28.8,0.02,Rain,Rain,340,2013-04-10 08:15:00
3:35 AM,49.5,43.2,79,29.83,5.0,North,23.0,27.6,0.02,,Haze,350,2013-04-10 08:35:00
3:55 AM,48.4,41.9,78,29.80,10.0,North,23.0,28.8,0.02,,Overcast,10,2013-04-10 08:55:00
4:15 AM,47.8,41.2,78,29.80,10.0,NNE,26.5,34.5,N/A,,Overcast,20,2013-04-10 09:15:00
4:55 AM,45.9,40.3,81,29.85,5.0,NNE,18.4,41.4,0.33,,Unknown,30,2013-04-10 09:55:00
5:15 AM,45.9,40.3,81,29.87,10.0,NNE,19.6,24.2,N/A,,Overcast,20,2013-04-10 10:15:00
5:35 AM,45.7,39.9,80,29.83,10.0,NNE,16.1,25.3,N/A,,Scattered Clouds,30,2013-04-10 10:35:00
5:55 AM,45.7,39.7,80,29.83,10.0,NE,16.1,21.9,N/A,,Mostly Cloudy,40,2013-04-10 10:55:00
6:15 AM,45.9,40.1,80,29.80,10.0,ENE,15.0,-,N/A,,Overcast,60,2013-04-10 11:15:00
6:35 AM,45.9,39.9,80,29.81,10.0,ENE,17.3,-,N/A,,Light Drizzle,60,2013-04-10 11:35:00
6:55 AM,45.7,39.6,79,29.81,10.0,ENE,11.5,-,N/A,,Scattered Clouds,60,2013-04-10 11:55:00
7:15 AM,46.4,39.7,78,29.82,10.0,ENE,16.1,-,N/A,,Scattered Clouds,70,2013-04-10 12:15:00
7:35 AM,46.6,39.6,77,29.92,10.0,ESE,9.2,-,N/A,Rain,Rain,120,2013-04-10 12:35:00
7:55 AM,46.8,40.3,78,29.99,10.0,SW,12.7,-,0.01,Rain,Rain,230,2013-04-10 12:55:00
8:15 AM,46.6,40.5,79,29.90,4.0,North,12.7,-,0.06,Rain,Rain,360,2013-04-10 13:15:00
8:35 AM,46.0,40.6,81,29.85,10.0,SE,16.1,-,0.08,Rain,Light Rain,140,2013-04-10 13:35:00
8:55 AM,46.8,41.0,80,29.85,10.0,East,9.2,-,0.08,,Scattered Clouds,90,2013-04-10 13:55:00
9:15 AM,47.5,41.4,79,29.81,10.0,ENE,11.5,-,N/A,,Scattered Clouds,60,2013-04-10 14:15:00
9:35 AM,48.2,41.7,78,29.82,10.0,East,13.8,-,N/A,,Mostly Cloudy,80,2013-04-10 14:35:00
9:55 AM,49.1,42.1,77,29.87,10.0,ENE,3.5,-,N/A,,Overcast,70,2013-04-10 14:55:00
10:15 AM,49.5,42.8,78,29.85,10.0,ENE,10.4,-,N/A,,Overcast,70,2013-04-10 15:15:00
10:35 AM,49.3,43.0,79,29.84,7.0,ENE,10.4,-,N/A,Rain,Light Rain,60,2013-04-10 15:35:00
10:55 AM,49.3,43.0,79,29.87,10.0,NNE,8.1,-,N/A,,Overcast,30,2013-04-10 15:55:00
11:15 AM,49.3,43.0,79,29.90,10.0,NE,5.8,-,N/A,Rain,Light Rain,50,2013-04-10 16:15:00
11:35 AM,49.3,42.8,78,29.94,10.0,Calm,Calm,-,N/A,,Light Drizzle,0,2013-04-10 16:35:00
12:15 PM,49.6,43.3,79,29.87,10.0,NNE,15.0,-,N/A,Rain,Light Rain,20,2013-04-10 17:15:00
12:35 PM,49.1,43.2,80,29.85,10.0,North,11.5,25.3,N/A,,Overcast,360,2013-04-10 17:35:00
1:15 PM,48.6,42.8,80,29.93,5.0,NNW,9.2,-,0.03,Rain,Rain,340,2013-04-10 18:15:00
1:35 PM,48.4,42.4,80,29.91,5.0,NNE,11.5,-,0.04,Rain,Rain,20,2013-04-10 18:35:00
1:55 PM,47.3,41.5,80,29.87,5.0,North,12.7,-,0.05,Rain,Light Rain,10,2013-04-10 18:55:00
2:15 PM,47.3,41.4,80,29.87,7.0,NNE,15.0,-,N/A,Rain,Rain,20,2013-04-10 19:15:00
2:35 PM,47.7,41.7,80,29.83,10.0,NNE,18.4,25.3,N/A,,Light Drizzle,30,2013-04-10 19:35:00
2:55 PM,47.7,41.4,79,29.81,10.0,NNE,16.1,23.0,N/A,,Overcast,30,2013-04-10 19:55:00
3:15 PM,47.7,41.0,78,29.86,10.0,NE,12.7,-,N/A,Rain,Light Rain,40,2013-04-10 20:15:00
3:35 PM,47.5,41.0,78,29.79,10.0,ENE,17.3,-,N/A,,Light Drizzle,60,2013-04-10 20:35:00
3:55 PM,47.5,41.2,79,29.83,10.0,ENE,13.8,-,N/A,,Overcast,70,2013-04-10 20:55:00
4:15 PM,47.7,41.5,79,29.83,10.0,ENE,13.8,-,N/A,Rain,Light Rain,60,2013-04-10 21:15:00
4:35 PM,47.3,41.2,79,29.80,10.0,ENE,16.1,-,N/A,,Drizzle,60,2013-04-10 21:35:00
4:55 PM,47.3,41.2,79,29.75,7.0,NE,17.3,24.2,N/A,Rain,Light Rain,40,2013-04-10 21:55:00
5:15 PM,47.3,41.2,79,29.78,10.0,NE,13.8,24.2,N/A,,Overcast,50,2013-04-10 22:15:00
5:35 PM,47.3,41.0,79,29.77,10.0,ENE,15.0,-,N/A,Rain,Light Rain,60,2013-04-10 22:35:00
5:55 PM,47.3,41.2,79,29.78,7.0,ENE,18.4,-,0.01,Rain,Light Rain,60,2013-04-10 22:55:00
6:15 PM,46.9,41.2,80,29.77,5.0,NE,12.7,-,0.03,Rain,Rain,50,2013-04-10 23:15:00
6:35 PM,47.3,41.5,80,29.78,5.0,ENE,9.2,-,0.07,Rain,Rain,60,2013-04-10 23:35:00
6:55 PM,47.3,41.5,80,29.80,2.5,NNE,6.9,-,0.17,Rain,Light Rain,30,2013-04-10 23:55:00
7:15 PM,46.9,41.5,81,29.69,5.0,NNE,21.9,-,0.03,Rain,Light Rain,20,2013-04-11 00:15:00
7:35 PM,46.8,41.5,82,29.73,7.0,NNE,12.7,-,0.03,Rain,Light Rain,30,2013-04-11 00:35:00
7:55 PM,47.3,41.9,82,29.77,10.0,NE,9.2,-,0.03,Rain,Light Rain,50,2013-04-11 00:55:00
8:15 PM,47.3,41.5,80,29.77,7.0,NE,10.4,-,0.03,Rain,Rain,40,2013-04-11 01:15:00
8:35 PM,47.3,41.5,80,29.80,4.0,NE,6.9,-,0.10,Rain,Heavy Rain,50,2013-04-11 01:35:00
8:55 PM,46.9,41.4,81,29.80,2.5,North,10.4,-,0.25,Rain,Heavy Rain,10,2013-04-11 01:55:00
9:15 PM,46.6,41.0,81,29.78,4.0,NNE,12.7,-,0.07,Rain,Rain,20,2013-04-11 02:15:00
9:35 PM,46.2,40.8,81,29.78,3.0,NNE,16.1,-,0.16,Rain,Light Rain,20,2013-04-11 02:35:00
9:55 PM,46.0,40.6,81,29.70,5.0,NE,19.6,-,0.18,Rain,Light Rain,40,2013-04-11 02:55:00
10:15 PM,45.7,40.3,81,29.67,7.0,NE,24.2,32.2,N/A,Rain,Light Rain,50,2013-04-11 03:15:00
10:35 PM,46.0,40.5,81,29.71,10.0,NNE,16.1,-,N/A,,Overcast,30,2013-04-11 03:35:00
10:55 PM,46.4,40.5,80,29.71,10.0,NE,15.0,-,N/A,,Overcast,40,2013-04-11 03:55:00
11:15 PM,46.4,40.3,79,29.70,10.0,NE,13.8,-,N/A,,Overcast,50,2013-04-11 04:15:00
11:35 PM,46.4,40.1,79,29.70,10.0,ENE,13.8,-,N/A,,Overcast,60,2013-04-11 04:35:00
11:55 PM,46.4,40.1,79,29.69,10.0,ENE,17.3,21.9,N/A,,Overcast,70,2013-04-11 04:55:00